Rbgn^[z[y[W
メイン
   新天体発見情報
     Comet C/2024 N1 (PANSTARRS)
投稿するにはまず登録を

スレッド表示 | 新しいものから 前のトピック | 次のトピック | 下へ
投稿者 スレッド
佐藤裕久
投稿日時: 2024-7-20 14:07
モデレータ
登録日: 2005-6-12
居住地: 日本
投稿: 2701
オンライン
Comet C/2024 N1 (PANSTARRS)

R. Weryk (西オンタリオ大学,物理および天文学科)の通報によると、7月1日、Haleakalaにある
Pan-STARRS2 1.8-m Ritchey-Chretien反射望遠鏡で得た画像から彗星を発見した。
Weryk(とR. Wainscoat)は、7月3.4日UT、3.6-m Canada-France-Hawaii望遠鏡で、3枚の60-秒gri-
バンドフォローアップ画像を得た。0".9のシーイングで、この彗星は約1".5(半値全幅:FWHM)の
集光した頭部が見えるが尾はない。Werykは、さらに7月4.6日、0".8のシーイングで得た90-秒gri-
バンドCFHT画像では、1".3(FWHM)の集光した頭部が見え、p.a.180-215°に及ぶ8"の広い尾がある
彗星であることが確認されたと付け加えた。

彗星機能の報告は次のとおり、

OC   Date        Reporter           Coma    Tail    PA          Exposures
T14  2024-07-04  R. Weryk           0".5      8"    180-215        3x90s

発見位置は次のとおり、

     2024 UT             R.A. (2000) Decl.       Mag.
     June  6.48568   21 40 04.35   +19 43 31.5   22.7
           6.49816   21 40 04.09   +19 43 38.9   22.9
           6.51064   21 40 03.83   +19 43 45.6   22.6
          15.49308   21 36 31.21   +21 07 19.8   21.6
          15.53063   21 36 30.17   +21 07 40.7   21.8
     July  1.46141   21 27 26.52   +23 26 40.9   21.8
           1.47529   21 27 25.97   +23 26 47.1   21.1
           1.48916   21 27 25.40   +23 26 53.9   21.7
           1.50310   21 27 24.80   +23 27 00.6   21.7
           1.57305   21 27 21.92   +23 27 35.5   22.4
           1.57370   21 27 21.89   +23 27 35.7   22.5

MPCの楕円軌道要素、位置推算表は次のとおり、

Orbital elements:
    C/2024 N1 (PANSTARRS)                                                       
Epoch 2024 Mar. 31.0 TT = JDT 2460400.5                                         
T 2025 Oct. 23.51737 TT                                 Rudenko                 
q   4.3207714            (2000.0)            P               Q                  
z  +0.0000280      Peri.   92.73500     -0.02507846     -0.79810895             
 +/-0.0004009      Node   322.97725     -0.35503284     +0.57003569             
e   0.9998790      Incl.   88.75973     +0.93451739     +0.19514463             
From 20 observations 2024 June 6-July 5, mean residual 1".2.                    
                                                                                
Ephemeris:
Date    TT    R. A. (2000) Decl.     Delta      r    Elong.  Phase   m1    m2
2024 06 09    21 39 11.7 +20 07 10   5.6192  5.9038   101.4     9.7  22.0
...
2024 06 24    21 32 08.1 +22 23 28   5.3522  5.8265   113.1     9.2  21.8
...
2024 07 02    21 27 04.7 +23 31 05   5.2242  5.7856   119.0     8.8  21.7
...
2024 07 08    21 22 42.7 +24 18 21   5.1364  5.7552   123.1     8.5  21.7
2024 07 09    21 21 56.2 +24 25 54   5.1225  5.7501   123.8     8.5  21.6
2024 07 10    21 21 09.1 +24 33 20   5.1089  5.7451   124.4     8.4  21.6
...
2024 07 16    21 16 10.9 +25 15 40   5.0319  5.7148   128.1     8.0  21.6
...
2024 07 24    21 08 57.0 +26 05 13   4.9430  5.6748   132.1     7.6  21.5
...
2024 08 08    20 54 03.5 +27 13 24   4.8224  5.6005   136.4     7.2  21.4

(MPEC 2024-N107、CBET 5410)

スレッド表示 | 新しいものから 前のトピック | 次のトピック | トップ

投稿するにはまず登録を
 
© 1999 Tsutomu Seki.